Weather History for Niagara Falls, NY

Change the Weather History Date:

Monday, June 9, 2014

  Actual Average Record
Temperature  
Mean Temperature 66 °F -  
Max Temperature 75 °F 72 °F 91 °F (2005)
Min Temperature 57 °F 52 °F 46 °F (1998)
Cooling Degree Days 1    
Growing Degree Days 16 (Base 50)    
Moisture  
Dew Point 57 °F    
Average Humidity 73    
Maximum Humidity 90    
Minimum Humidity 54    
Precipitation  
Precipitation 0.00 in - - ()
Sea Level Pressure  
Sea Level Pressure 29.94 in    
Wind  
Wind Speed 7 mph (NNE)    
Max Wind Speed 15 mph    
Max Gust Speed -    
Visibility 10 miles    
Events      
Averages and records for this station are not official NWS values.
T = Trace of Precipitation, MM = Missing Value Source: NWS Daily Summary

Daily Weather History Graph

Daily Weather History Graph

Search for Another Location

Airport:

Trip Planner

Search our weather history database for the weather conditions in past years. The results will help you decide how hot, cold, wet, or windy it might be!

Date:

Astronomy

Jun. 09, 2014 Rise Set
Actual Time 5:36 AM EDT 8:54 PM EDT
Civil Twilight 5:01 AM EDT 9:29 PM EDT
Nautical Twilight 4:15 AM EDT 10:14 PM EDT
Astronomical Twilight 3:19 AM EDT 11:11 PM EDT
Moon 5:08 PM EDT (6/9) 3:08 AM EDT (6/9)
Length of Visible Light 16h 28m
Length of Day
15h 17m
Waxing Gibbous, 85% of the Moon is Illuminated
Jun 9
Waxing Gibbous
Jun 13
Full
Jun 19
Last Quarter
Jun 27
New
Jul 5
First Quarter

Hourly Weather History & Observations

Time (EDT) Temp. Dew Point Humidity Pressure Visibility Wind Dir Wind Speed Gust Speed Precip Events Conditions
12:53 AM 60.1 °F 57.0 °F 90% 29.91 in 10.0 mi NNW 5.8 mph - N/A   Overcast
1:53 AM 60.1 °F 55.9 °F 86% 29.91 in 10.0 mi NNW 4.6 mph - N/A   Overcast
2:53 AM 59.0 °F 55.9 °F 90% 29.92 in 8.0 mi NNW 5.8 mph - N/A   Overcast
3:53 AM 59.0 °F 55.0 °F 87% 29.93 in 8.0 mi NNW 6.9 mph - N/A   Overcast
4:53 AM 57.9 °F 53.1 °F 84% 29.93 in 10.0 mi North 9.2 mph - N/A   Mostly Cloudy
5:53 AM 57.0 °F 53.1 °F 87% 29.95 in 9.0 mi NNW 4.6 mph - N/A   Clear
6:53 AM 60.1 °F 54.0 °F 80% 29.95 in 10.0 mi North 5.8 mph - N/A   Clear
7:00 AM 60.1 °F 55.0 °F 83% 29.95 in 10.0 mi North 6.9 mph - N/A   Mostly Cloudy
7:53 AM 62.1 °F 55.9 °F 80% 29.96 in 10.0 mi North 6.9 mph - N/A   Mostly Cloudy
8:53 AM 64.0 °F 57.0 °F 78% 29.97 in 10.0 mi ENE 8.1 mph - N/A   Mostly Cloudy
10:17 AM 68.0 °F 59.0 °F 73% 29.98 in 10.0 mi NE 13.8 mph - N/A   Mostly Cloudy
10:53 AM 69.8 °F 59.0 °F 68% 29.99 in 10.0 mi ENE 11.5 mph - N/A   Mostly Cloudy
11:53 AM 71.1 °F 60.1 °F 68% 29.98 in 10.0 mi NNE 11.5 mph - N/A   Mostly Cloudy
12:53 PM 73.9 °F 61.0 °F 64% 29.96 in 10.0 mi NE 12.7 mph - N/A   Mostly Cloudy
1:53 PM 73.0 °F 61.0 °F 66% 29.96 in 10.0 mi North 9.2 mph - N/A   Mostly Cloudy
2:53 PM 73.9 °F 60.1 °F 62% 29.96 in 10.0 mi NE 11.5 mph - N/A   Mostly Cloudy
3:53 PM 73.4 °F 57.2 °F 57% 29.93 in 10.0 mi NNE 15.0 mph - N/A   Mostly Cloudy
4:53 PM 75.9 °F 57.9 °F 54% 29.94 in 10.0 mi ENE 11.5 mph - N/A   Mostly Cloudy
5:53 PM 75.9 °F 57.9 °F 54% 29.94 in 10.0 mi ENE 11.5 mph - N/A   Mostly Cloudy
6:53 PM 73.9 °F 57.9 °F 57% 29.92 in 10.0 mi East 8.1 mph - N/A   Mostly Cloudy
7:53 PM 73.0 °F 57.0 °F 57% 29.93 in 10.0 mi East 5.8 mph - N/A   Scattered Clouds
8:53 PM 70.0 °F 57.0 °F 63% 29.94 in 10.0 mi Calm Calm - N/A   Mostly Cloudy
9:53 PM 69.1 °F 57.9 °F 68% 29.95 in 10.0 mi North 5.8 mph - N/A   Mostly Cloudy
10:53 PM 66.0 °F 59.0 °F 78% 29.94 in 10.0 mi East 4.6 mph - N/A   Mostly Cloudy
11:53 PM 64.9 °F 59.0 °F 81% 29.92 in 10.0 mi NNW 5.8 mph - N/A   Mostly Cloudy